Location: Cormont
(50.5693°N, 1.7416°E)
Time: 03:05:03
(UTC+00:00)

YAOGAN 1 - Pass Details

Date: 21 October 2019
Orbit: 619 x 621 km, 98.0° (Epoch: 13 November)

Event Time Altitude Azimuth Distance (km) Brightness Sun altitude
Rises 17:40:07 0° 148° (SSE) 2,888 5.7 -8.7°
Reaches altitude 10° 17:42:21 10° 143° (SE) 1,986 4.9 -9.0°
Maximum altitude 17:46:30 48° 69° (ENE) 818 2.8 -9.7°
Drops below altitude 10° 17:50:41 10° 356° (N) 2,000 5.2 -10.4°
Sets 17:52:56 0° 351° (N) 2,911 6.1 -10.7°
